Glasgow, KY

5:35 AM CST on January 22, 2018 (GMT -0600)
Glasgow Municipal

Weather History for KGLW - August, 2013

Change the Weather History Date:

Friday, August 2, 2013

  Actual Average Record
Temperature  
Mean Temperature 71 °F -  
Max Temperature 83 °F 87 °F 99 °F (1987)
Min Temperature 59 °F 64 °F 54 °F (1992)
Cooling Degree Days 6    
Growing Degree Days 21 (Base 50)    
Moisture  
Dew Point 62 °F    
Average Humidity 78    
Maximum Humidity 100    
Minimum Humidity 43    
Precipitation  
Precipitation 0.00 in - - ()
Sea Level Pressure  
Sea Level Pressure 30.04 in    
Wind  
Wind Speed 1 mph (WSW)    
Max Wind Speed 6 mph    
Max Gust Speed -    
Visibility 7 miles    
Events Fog    
Averages and records for this station are not official NWS values.
T = Trace of Precipitation, MM = Missing Value Source: NWS Daily Summary

Daily Weather History Graph

Daily Weather History Graph

Search for Another Location

Airport or City:

Trip Planner

Search our weather history database for the weather conditions in past years. The results will help you decide how hot, cold, wet, or windy it might be!

Date:

Astronomy

Aug. 02, 2013 Rise Set
Actual Time 5:49 AM CDT 7:49 PM CDT
Civil Twilight 5:21 AM CDT 8:18 PM CDT
Nautical Twilight 4:46 AM CDT 8:52 PM CDT
Astronomical Twilight 4:08 AM CDT 9:30 PM CDT
Moon 2:11 AM CDT (8/2) 4:45 PM CDT (8/2)
Length of Visible Light 14h 56m
Length of Day
13h 59m
Waning Crescent, 15% of the Moon is Illuminated
Aug 2
Waning Crescent
Aug 6
New
Aug 14
First Quarter
Aug 20
Full
Aug 28
Last Quarter

Hourly Weather History & Observations

Time (CDT) Temp. Heat Index Dew Point Humidity Pressure Visibility Wind Dir Wind Speed Gust Speed Precip Events Conditions
12:15 AM 62.4 °F - 62.4 °F 100% 30.04 in 1.2 mi Calm Calm - N/A   Mist
12:35 AM 62.1 °F - 62.1 °F 100% 30.03 in 4.0 mi Calm Calm - N/A   Clear
12:55 AM 62.1 °F - 62.1 °F 100% 30.03 in 4.0 mi Calm Calm - N/A   Clear
1:15 AM 61.5 °F - 61.5 °F 100% 30.02 in 3.0 mi Calm Calm - N/A   Clear
1:35 AM 61.5 °F - 61.5 °F 100% 30.02 in 1.8 mi Calm Calm - N/A   Mist
1:55 AM 61.0 °F - 61.0 °F 100% 30.02 in 1.5 mi Calm Calm - N/A   Mist
2:15 AM 61.0 °F - 61.0 °F 100% 30.02 in 1.2 mi Calm Calm - N/A   Mist
2:35 AM 60.4 °F - 60.4 °F 100% 30.02 in 0.8 mi Calm Calm - N/A   Mist
2:55 AM 60.3 °F - 60.3 °F 100% 30.01 in 3.0 mi Calm Calm - N/A   Clear
3:15 AM 60.4 °F - 60.4 °F 100% 30.01 in 0.8 mi Calm Calm - N/A   Mist
3:35 AM 59.9 °F - 59.9 °F 100% 30.02 in 0.5 mi Calm Calm - N/A Fog Fog
3:55 AM 60.1 °F - 60.1 °F 100% 30.02 in 0.2 mi Calm Calm - N/A Fog Fog
4:15 AM 59.9 °F - 59.9 °F 100% 30.02 in 0.5 mi Calm Calm - N/A Fog Fog
4:35 AM 59.4 °F - 59.4 °F 100% 30.02 in 0.8 mi Calm Calm - N/A   Mist
4:55 AM 60.1 °F - 60.1 °F 100% 30.03 in 3.0 mi Calm Calm - N/A   Clear
5:15 AM 59.5 °F - 59.5 °F 100% 30.03 in 0.8 mi Calm Calm - N/A   Mostly Cloudy
5:35 AM 59.5 °F - 59.5 °F 100% 30.03 in 1.5 mi Calm Calm - N/A   Mist
5:55 AM 59.5 °F - 59.5 °F 100% 30.03 in 2.0 mi Calm Calm - N/A   Clear
6:15 AM 59.7 °F - 59.7 °F 100% 30.04 in 4.0 mi Calm Calm - N/A   Clear
6:35 AM 59.4 °F - 59.4 °F 100% 30.04 in 3.0 mi Calm Calm - N/A   Clear
6:55 AM 60.4 °F - 60.4 °F 100% 30.05 in 4.0 mi Calm Calm - N/A   Clear
7:15 AM 62.1 °F - 62.1 °F 100% 30.04 in 5.0 mi Calm Calm - N/A   Clear
7:35 AM 63.1 °F - 63.1 °F 100% 30.04 in 7.0 mi Calm Calm - N/A   Clear
7:55 AM 64.0 °F - 64.0 °F 100% 30.04 in 7.0 mi Calm Calm - N/A   Clear
8:15 AM 65.8 °F - 65.7 °F 99% 30.04 in 10.0 mi Calm Calm - N/A   Clear
8:35 AM 68.2 °F - 67.8 °F 99% 30.05 in 7.0 mi Calm Calm - N/A   Clear
8:55 AM 70.3 °F - 68.4 °F 93% 30.05 in 7.0 mi Calm Calm - N/A   Clear
9:15 AM 72.3 °F - 66.7 °F 83% 30.06 in 10.0 mi Calm Calm - N/A   Clear
9:35 AM 73.6 °F - 65.5 °F 76% 30.06 in 10.0 mi Calm Calm - N/A   Clear
9:55 AM 75.2 °F - 64.0 °F 68% 30.06 in 10.0 mi South 3.5 mph - N/A   Clear
10:15 AM 77.2 °F - 63.0 °F 61% 30.07 in 10.0 mi Calm Calm - N/A   Clear
10:35 AM 78.8 °F - 61.9 °F 56% 30.06 in 10.0 mi Calm Calm - N/A   Clear
10:55 AM 79.9 °F - 59.9 °F 50% 30.06 in 10.0 mi SSW 3.5 mph - N/A   Clear
11:15 AM 80.8 °F 81.1 °F 58.1 °F 46% 30.07 in 10.0 mi West 3.5 mph - N/A   Clear
11:35 AM 81.3 °F 81.4 °F 58.3 °F 45% 30.08 in 10.0 mi WSW 5.8 mph - N/A   Clear
11:55 AM 81.5 °F 81.7 °F 59.0 °F 46% 30.07 in 10.0 mi SW 4.6 mph - N/A   Clear
12:15 PM 82.0 °F 82.0 °F 57.9 °F 44% 30.07 in 10.0 mi Calm Calm - N/A   Clear
12:35 PM 82.4 °F 82.5 °F 59.2 °F 45% 30.07 in 10.0 mi WSW 4.6 mph - N/A   Clear
1:15 PM 82.9 °F 82.7 °F 58.5 °F 43% 30.06 in 10.0 mi Calm Calm - N/A   Clear
1:35 PM 82.6 °F 82.5 °F 58.5 °F 44% 30.06 in 10.0 mi Calm Calm - N/A   Clear
1:55 PM 83.3 °F 83.2 °F 59.5 °F 44% 30.07 in 10.0 mi Calm Calm - N/A   Clear
2:15 PM 82.4 °F 82.6 °F 59.5 °F 46% 30.07 in 10.0 mi Calm Calm - N/A   Clear
2:35 PM 81.7 °F 82.0 °F 59.9 °F 47% 30.06 in 10.0 mi SSW 4.6 mph - N/A   Clear
2:55 PM 81.1 °F 81.9 °F 60.8 °F 50% 30.06 in 10.0 mi West 3.5 mph - N/A   Clear
3:15 PM 81.1 °F 82.0 °F 61.2 °F 51% 30.05 in 10.0 mi West 4.6 mph - N/A   Clear
3:35 PM 81.0 °F 81.8 °F 61.3 °F 51% 30.04 in 10.0 mi West 3.5 mph - N/A   Clear
3:55 PM 81.5 °F 82.1 °F 60.8 °F 49% 30.04 in 10.0 mi WNW 3.5 mph - N/A   Clear
4:15 PM 82.2 °F 82.6 °F 60.3 °F 47% 30.04 in 10.0 mi WNW 3.5 mph - N/A   Clear
4:35 PM 81.1 °F 82.0 °F 61.2 °F 51% 30.04 in 10.0 mi SSW 4.6 mph - N/A   Clear
4:55 PM 81.1 °F 81.9 °F 61.0 °F 50% 30.03 in 10.0 mi WSW 4.6 mph - N/A   Clear
5:15 PM 81.3 °F 82.1 °F 61.2 °F 50% 30.03 in 10.0 mi SW 3.5 mph - N/A   Clear
5:35 PM 81.1 °F 81.6 °F 59.9 °F 48% 30.01 in 10.0 mi SSW 3.5 mph - N/A   Clear
5:55 PM 81.0 °F 81.6 °F 60.1 °F 49% 30.02 in 10.0 mi Calm Calm - N/A   Clear
6:15 PM 80.4 °F 81.1 °F 59.7 °F 49% 30.01 in 10.0 mi Calm Calm - N/A   Clear
6:35 PM 78.8 °F - 60.3 °F 53% 30.00 in 10.0 mi Calm Calm - N/A   Clear
6:55 PM 78.1 °F - 61.9 °F 57% 30.00 in 10.0 mi Calm Calm - N/A   Clear
7:15 PM 76.6 °F - 64.6 °F 66% 30.01 in 10.0 mi Calm Calm - N/A   Clear
7:35 PM 74.5 °F - 63.7 °F 69% 30.01 in 10.0 mi Calm Calm - N/A   Clear
7:55 PM 72.1 °F - 64.2 °F 76% 30.01 in 10.0 mi Calm Calm - N/A   Clear
8:15 PM 71.1 °F - 63.9 °F 78% 30.02 in 10.0 mi Calm Calm - N/A   Clear
8:35 PM 70.3 °F - 64.4 °F 81% 30.02 in 10.0 mi Calm Calm - N/A   Clear
8:55 PM 69.8 °F - 65.3 °F 86% 30.02 in 10.0 mi Calm Calm - N/A   Clear
9:15 PM 70.2 °F - 65.3 °F 85% 30.03 in 10.0 mi Calm Calm - N/A   Clear
9:35 PM 70.2 °F - 65.8 °F 86% 30.03 in 10.0 mi Calm Calm - N/A   Clear
9:55 PM 70.0 °F - 66.9 °F 90% 30.03 in 10.0 mi Calm Calm - N/A   Clear
10:15 PM 69.8 °F - 69.8 °F 100% 30.03 in 10.0 mi Calm Calm - N/A   Clear
10:35 PM 69.3 °F - 69.3 °F 100% 30.03 in 10.0 mi Calm Calm - N/A   Clear
10:55 PM 69.6 °F - 69.4 °F 99% 30.02 in 10.0 mi Calm Calm - N/A   Clear
11:15 PM 69.6 °F - 69.6 °F 100% 30.03 in 10.0 mi Calm Calm - N/A   Clear
11:35 PM 69.1 °F - 69.1 °F 100% 30.02 in 10.0 mi Calm Calm - N/A   Clear
11:55 PM 68.7 °F - 68.7 °F 100% 30.01 in 10.0 mi Calm Calm - N/A   Clear